This is the latest recevied weather packets stored in our database for station/object N3SBK. If no packets are shown the sender has not sent any weather packets the latest 10 day(s).
| Time | Temp. | Humidity | Pressure | Rain* | Wind** | Luminosity | Snow |
|---|---|---|---|---|---|---|---|
| 1777886823 | 8.33° C | 58% | 1003.7 hPa | 0 mm | - | 0 W/m² | - |
| 1777886519 | 8.33° C | 57% | 1003.7 hPa | 0 mm | - | 0 W/m² | - |
| 1777886217 | 8.33° C | 57% | 1003.9 hPa | 0 mm | - | 0 W/m² | - |
| 1777885915 | 8.33° C | 56% | 1003.6 hPa | 0 mm | - | 0 W/m² | - |
| 1777885613 | 8.89° C | 57% | 1003.7 hPa | 0 mm | - | 0 W/m² | - |
| 1777885311 | 8.89° C | 55% | 1003.8 hPa | 0 mm | - | 0 W/m² | - |
| 1777885009 | 8.89° C | 54% | 1003.9 hPa | 0 mm | - | 0 W/m² | - |
| 1777884704 | 8.89° C | 55% | 1004 hPa | 0 mm | - | 0 W/m² | - |
| 1777884401 | 8.89° C | 54% | 1003.9 hPa | 0 mm | - | 0 W/m² | - |
| 1777884097 | 8.89° C | 55% | 1003.9 hPa | 0 mm | - | 0 W/m² | - |
| 1777883795 | 8.89° C | 54% | 1004 hPa | 0 mm | - | 0 W/m² | - |
| 1777883492 | 8.89° C | 56% | 1004.1 hPa | 0 mm | - | 0 W/m² | - |
| 1777883188 | 8.89° C | 56% | 1004.1 hPa | 0 mm | - | 0 W/m² | - |
| 1777882884 | 8.89° C | 55% | 1004.1 hPa | 0 mm | - | 0 W/m² | - |
| 1777882581 | 8.89° C | 55% | 1004.1 hPa | 0 mm | - | 0 W/m² | - |
| 1777882277 | 8.89° C | 56% | 1004.2 hPa | 0 mm | - | 0 W/m² | - |
| 1777881974 | 8.89° C | 58% | 1004.1 hPa | 0 mm | - | 0 W/m² | - |
| 1777881671 | 8.89° C | 56% | 1004 hPa | 0 mm | - | 0 W/m² | - |
| 1777881368 | 8.89° C | 58% | 1004.3 hPa | 0 mm | - | 0 W/m² | - |
| 1777881065 | 8.89° C | 52% | 1004.3 hPa | 0 mm | - | 0 W/m² | - |
| 1777880763 | 8.89° C | 53% | 1004.2 hPa | 0 mm | - | 0 W/m² | - |
| 1777880460 | 8.89° C | 53% | 1004.2 hPa | 0 mm | - | 0 W/m² | - |
| 1777880158 | 8.89° C | 52% | 1004.3 hPa | 0 mm | - | 0 W/m² | - |
| 1777879857 | 8.89° C | 53% | 1004.2 hPa | 0 mm | - | 0 W/m² | - |
| 1777879554 | 8.33° C | 55% | 1004.3 hPa | 0 mm | - | 0 W/m² | - |
* Rain latest hour (hover to see other rain measurements)
** Current wind speed in m/s (hover to see current wind gust speed)